| time (UTC) | temp F | wind direction | speed MPH | gust MPH | rain 1hr in | rain 24hr in | rain mn in | humidity % | barometer mb |
| 20260905022705 | 74 | 348 | 4.0 | 4.0 | 0.00 | 0.00 | 0.00 | 99 | 1025.2 |
| 20260905022201 | 74 | 348 | 4.0 | 4.0 | 0.00 | 0.00 | 0.00 | 99 | 1025.2 |
| 20260905021655 | 74 | 344 | 4.0 | 4.0 | 0.00 | 0.00 | 0.00 | 99 | 1025.2 |
| 20260905021150 | 74 | 344 | 4.0 | 4.0 | 0.00 | 0.00 | 0.00 | 99 | 1025.2 |
| 20260905020645 | 74 | 340 | 4.0 | 4.0 | 0.00 | 0.00 | 0.00 | 99 | 1025.2 |
| 20260905020141 | 74 | 340 | 4.0 | 4.0 | 0.00 | 0.00 | 0.00 | 99 | 1025.2 |
| 20260905015639 | 74 | 304 | 6.0 | 7.0 | 0.00 | 0.00 | 0.00 | 99 | 1024.8 |
| 20260905015133 | 74 | 304 | 6.0 | 7.0 | 0.00 | 0.00 | 0.00 | 99 | 1024.8 |
| 20260905014627 | 74 | 270 | 4.0 | 6.0 | 0.00 | 0.00 | 0.00 | 99 | 1025.0 |
| 20260905014123 | 74 | 270 | 4.0 | 6.0 | 0.00 | 0.00 | 0.00 | 99 | 1025.0 |
| 20260905013620 | 75 | 240 | 6.0 | 7.0 | 0.00 | 0.00 | 0.00 | 99 | 1024.8 |
| 20260905013115 | 75 | 240 | 6.0 | 7.0 | 0.00 | 0.00 | 0.00 | 99 | 1024.8 |
| 20260905012614 | 75 | 281 | 8.0 | 9.0 | 0.00 | 0.00 | 0.00 | 99 | 1024.7 |
| 20260905012111 | 75 | 281 | 8.0 | 9.0 | 0.00 | 0.00 | 0.00 | 99 | 1024.7 |
| 20260905011607 | 75 | 316 | 13.0 | 14.0 | 0.00 | 0.00 | 0.00 | 99 | 1024.7 |
| 20260905011102 | 75 | 316 | 13.0 | 14.0 | 0.00 | 0.00 | 0.00 | 99 | 1024.7 |
| 20260905010556 | 75 | 316 | 13.0 | 15.0 | 0.00 | 0.00 | 0.00 | 99 | 1024.6 |
| 20260905010053 | 75 | 316 | 13.0 | 15.0 | 0.00 | 0.00 | 0.00 | 99 | 1024.6 |
| 20260905005548 | 75 | 314 | 11.0 | 11.0 | 0.00 | 0.00 | 0.00 | 99 | 1024.6 |
| 20260905005043 | 75 | 314 | 11.0 | 11.0 | 0.00 | 0.00 | 0.00 | 99 | 1024.6 |
| 20260905004538 | 75 | 338 | 10.0 | 11.0 | 0.00 | 0.00 | 0.00 | 99 | 1024.6 |
| 20260905004034 | 75 | 338 | 10.0 | 11.0 | 0.00 | 0.00 | 0.00 | 99 | 1024.6 |
| 20260905003529 | 75 | 292 | 10.0 | 11.0 | 0.00 | 0.00 | 0.00 | 99 | 1024.5 |
| 20260905003025 | 75 | 292 | 10.0 | 11.0 | 0.00 | 0.00 | 0.00 | 99 | 1024.5 |
| 20260905002520 | 76 | 273 | 11.0 | 13.0 | 0.00 | 0.00 | 0.00 | 99 | 1024.2 |
| 20260905002020 | 76 | 273 | 11.0 | 13.0 | 0.00 | 0.00 | 0.00 | 99 | 1024.2 |
| 20260905001514 | 77 | 273 | 5.0 | 7.0 | 0.00 | 0.00 | 0.00 | 99 | 1024.5 |
| 20260905001008 | 77 | 273 | 5.0 | 7.0 | 0.00 | 0.00 | 0.00 | 99 | 1024.5 |
| 20260905000504 | 76 | 321 | 9.0 | 10.0 | 0.00 | 0.00 | 0.00 | 99 | 1024.3 |
| 20260905000000 | 76 | 321 | 9.0 | 10.0 | 0.00 | 0.00 | 0.00 | 99 | 1024.3 |
| 20260904235455 | 76 | 285 | 6.0 | 7.0 | 0.00 | 0.00 | 0.00 | 99 | 1024.3 |
| 20260904234949 | 76 | 285 | 6.0 | 7.0 | 0.00 | 0.00 | 0.00 | 99 | 1024.3 |
| 20260904234443 | 76 | 252 | 5.0 | 7.0 | 0.00 | 0.00 | 0.00 | 99 | 1024.6 |
| 20260904233940 | 76 | 252 | 5.0 | 7.0 | 0.00 | 0.00 | 0.00 | 99 | 1024.6 |
| 20260904233434 | 77 | 258 | 5.0 | 7.0 | 0.00 | 0.00 | 0.00 | 99 | 1024.3 |
| 20260904232931 | 77 | 258 | 5.0 | 7.0 | 0.00 | 0.00 | 0.00 | 99 | 1024.3 |
| 20260904232427 | 76 | 352 | 9.0 | 13.0 | 0.00 | 0.00 | 0.00 | 99 | 1024.2 |
| 20260904231924 | 76 | 352 | 9.0 | 13.0 | 0.00 | 0.00 | 0.00 | 99 | 1024.2 |
| 20260904231423 | 77 | 323 | 10.0 | 14.0 | 0.00 | 0.00 | 0.00 | 99 | 1024.2 |
| 20260904230919 | 77 | 323 | 10.0 | 14.0 | 0.00 | 0.00 | 0.00 | 99 | 1024.2 |
| 20260904230417 | 77 | 277 | 8.0 | 9.0 | 0.00 | 0.00 | 0.00 | 99 | 1024.2 |
| 20260904225912 | 77 | 277 | 8.0 | 9.0 | 0.00 | 0.00 | 0.00 | 99 | 1024.2 |
| 20260904225410 | 77 | 281 | 9.0 | 11.0 | 0.00 | 0.00 | 0.00 | 99 | 1024.3 |
| 20260904224905 | 77 | 281 | 9.0 | 11.0 | 0.00 | 0.00 | 0.00 | 99 | 1024.3 |
| 20260904224401 | 77 | 277 | 11.0 | 13.0 | 0.00 | 0.00 | 0.00 | 99 | 1024.1 |
| 20260904223900 | 78 | 288 | 11.0 | 13.0 | 0.00 | 0.00 | 0.00 | 99 | 1024.3 |
| 20260904223359 | 78 | 288 | 11.0 | 13.0 | 0.00 | 0.00 | 0.00 | 99 | 1024.3 |
| 20260904222857 | 78 | 328 | 17.0 | 21.0 | 0.00 | 0.00 | 0.00 | 99 | 1024.3 |
| 20260904222356 | 78 | 328 | 17.0 | 21.0 | 0.00 | 0.00 | 0.00 | 99 | 1024.3 |
| 20260904221856 | 78 | 284 | 12.0 | 14.0 | 0.00 | 0.00 | 0.00 | 99 | 1024.2 |
| 20260904221351 | 78 | 284 | 12.0 | 14.0 | 0.00 | 0.00 | 0.00 | 99 | 1024.2 |
| 20260904220846 | 79 | 259 | 13.0 | 17.0 | 0.00 | 0.00 | 0.00 | 99 | 1024.1 |
| 20260904220345 | 79 | 259 | 13.0 | 17.0 | 0.00 | 0.00 | 0.00 | 99 | 1024.1 |
| 20260904215841 | 80 | 338 | 7.0 | 8.0 | 0.00 | 0.00 | 0.00 | 99 | 1024.3 |
| 20260904215336 | 80 | 338 | 7.0 | 8.0 | 0.00 | 0.00 | 0.00 | 99 | 1024.3 |
| 20260904214832 | 80 | 300 | 11.0 | 14.0 | 0.00 | 0.00 | 0.00 | 99 | 1024.2 |
| 20260904214327 | 80 | 300 | 11.0 | 14.0 | 0.00 | 0.00 | 0.00 | 99 | 1024.2 |
| 20260904213825 | 80 | 295 | 11.0 | 14.0 | 0.00 | 0.00 | 0.00 | 99 | 1024.2 |
| 20260904213321 | 80 | 295 | 11.0 | 14.0 | 0.00 | 0.00 | 0.00 | 99 | 1024.2 |
| 20260904212817 | 80 | 92 | 7.0 | 8.0 | 0.00 | 0.00 | 0.00 | 99 | 1024.2 |
| 20260904212318 | 80 | 92 | 7.0 | 8.0 | 0.00 | 0.00 | 0.00 | 99 | 1024.2 |
| 20260904211813 | 80 | 308 | 9.0 | 9.0 | 0.00 | 0.00 | 0.00 | 99 | 1024.3 |
| 20260904211308 | 80 | 308 | 9.0 | 9.0 | 0.00 | 0.00 | 0.00 | 99 | 1024.3 |
| 20260904210803 | 79 | 287 | 9.0 | 13.0 | 0.00 | 0.00 | 0.00 | 99 | 1024.5 |
| 20260904210302 | 79 | 287 | 9.0 | 13.0 | 0.00 | 0.00 | 0.00 | 99 | 1024.5 |
| 20260904205758 | 80 | 263 | 9.0 | 11.0 | 0.00 | 0.00 | 0.00 | 99 | 1024.6 |
| 20260904205254 | 80 | 263 | 9.0 | 11.0 | 0.00 | 0.00 | 0.00 | 99 | 1024.6 |
| 20260904204751 | 79 | 331 | 14.0 | 16.0 | 0.00 | 0.00 | 0.00 | 99 | 1024.6 |
| 20260904204247 | 79 | 331 | 14.0 | 16.0 | 0.00 | 0.00 | 0.00 | 99 | 1024.6 |
| 20260904203742 | 77 | 255 | 11.0 | 16.0 | 0.00 | 0.00 | 0.00 | 99 | 1024.5 |
| 20260904203238 | 77 | 255 | 11.0 | 16.0 | 0.00 | 0.00 | 0.00 | 99 | 1024.5 |
| 20260904202734 | 77 | 298 | 8.0 | 11.0 | 0.00 | 0.00 | 0.00 | 99 | 1024.5 |
| 20260904202230 | 77 | 298 | 8.0 | 11.0 | 0.00 | 0.00 | 0.00 | 99 | 1024.5 |
| 20260904201725 | 77 | 335 | 13.0 | 15.0 | 0.00 | 0.00 | 0.00 | 99 | 1024.7 |
| 20260904201219 | 77 | 335 | 13.0 | 15.0 | 0.00 | 0.00 | 0.00 | 99 | 1024.7 |
| 20260904200714 | 78 | 327 | 11.0 | 13.0 | 0.00 | 0.00 | 0.00 | 99 | 1024.6 |
| 20260904200209 | 78 | 327 | 11.0 | 13.0 | 0.00 | 0.00 | 0.00 | 99 | 1024.6 |
| 20260904195708 | 79 | 296 | 6.0 | 8.0 | 0.00 | 0.00 | 0.00 | 99 | 1024.6 |
| 20260904195207 | 79 | 296 | 6.0 | 8.0 | 0.00 | 0.00 | 0.00 | 99 | 1024.6 |
| 20260904194702 | 80 | 354 | 4.0 | 6.0 | 0.00 | 0.00 | 0.00 | 99 | 1024.6 |
| 20260904194201 | 80 | 354 | 4.0 | 6.0 | 0.00 | 0.00 | 0.00 | 99 | 1024.6 |
| 20260904193657 | 80 | 304 | 8.0 | 9.0 | 0.00 | 0.00 | 0.00 | 99 | 1025.0 |
| 20260904193153 | 80 | 304 | 8.0 | 9.0 | 0.00 | 0.00 | 0.00 | 99 | 1025.0 |
| 20260904192653 | 82 | 60 | 4.0 | 6.0 | 0.00 | 0.00 | 0.00 | 99 | 1024.7 |
| 20260904192143 | 82 | 60 | 4.0 | 6.0 | 0.00 | 0.00 | 0.00 | 99 | 1024.7 |
| 20260904191639 | 80 | 84 | 2.0 | 3.0 | 0.00 | 0.00 | 0.00 | 99 | 1025.0 |
| 20260904191130 | 80 | 84 | 2.0 | 3.0 | 0.00 | 0.00 | 0.00 | 99 | 1025.0 |
| 20260904190625 | 80 | 60 | 9.0 | 10.0 | 0.00 | 0.00 | 0.00 | 99 | 1024.7 |
| 20260904190121 | 80 | 60 | 9.0 | 10.0 | 0.00 | 0.00 | 0.00 | 99 | 1024.7 |
| 20260904185618 | 82 | 233 | 3.0 | 4.0 | 0.00 | 0.00 | 0.00 | 99 | 1025.0 |
| 20260904185118 | 82 | 233 | 3.0 | 4.0 | 0.00 | 0.00 | 0.00 | 99 | 1025.0 |
| 20260904184616 | 82 | 307 | 5.0 | 9.0 | 0.00 | 0.00 | 0.00 | 99 | 1025.0 |
| 20260904184112 | 82 | 307 | 5.0 | 9.0 | 0.00 | 0.00 | 0.00 | 99 | 1025.0 |
| 20260904183608 | 82 | 333 | 6.0 | 9.0 | 0.00 | 0.00 | 0.00 | 99 | 1025.2 |
| 20260904183057 | 82 | 333 | 6.0 | 9.0 | 0.00 | 0.00 | 0.00 | 99 | 1025.2 |
| 20260904182552 | 79 | 79 | 7.0 | 8.0 | 0.00 | 0.00 | 0.00 | 99 | 1025.3 |
| 20260904182052 | 79 | 79 | 7.0 | 8.0 | 0.00 | 0.00 | 0.00 | 99 | 1025.3 |
| 20260904181548 | 81 | 49 | 3.0 | 4.0 | 0.00 | 0.00 | 0.00 | 99 | 1025.3 |
| 20260904181048 | 81 | 49 | 3.0 | 4.0 | 0.00 | 0.00 | 0.00 | 99 | 1025.3 |
| 20260904180543 | 79 | 74 | 5.0 | 7.0 | 0.00 | 0.00 | 0.00 | 99 | 1025.6 |
| 20260904180038 | 79 | 74 | 5.0 | 7.0 | 0.00 | 0.00 | 0.00 | 99 | 1025.6 |
| 20260904175532 | 80 | 41 | 6.0 | 11.0 | 0.00 | 0.00 | 0.00 | 99 | 1025.3 |
| 20260904175031 | 80 | 41 | 6.0 | 11.0 | 0.00 | 0.00 | 0.00 | 99 | 1025.3 |
| 20260904174526 | 77 | 77 | 6.0 | 8.0 | 0.00 | 0.00 | 0.00 | 99 | 1025.5 |
| 20260904174023 | 77 | 77 | 6.0 | 8.0 | 0.00 | 0.00 | 0.00 | 99 | 1025.5 |
| 20260904173522 | 80 | 34 | 6.0 | 7.0 | 0.00 | 0.00 | 0.00 | 99 | 1025.3 |
| 20260904173018 | 80 | 34 | 6.0 | 7.0 | 0.00 | 0.00 | 0.00 | 99 | 1025.3 |
| 20260904172513 | 80 | 261 | 4.0 | 6.0 | 0.00 | 0.00 | 0.00 | 99 | 1025.5 |
| 20260904172012 | 80 | 261 | 4.0 | 6.0 | 0.00 | 0.00 | 0.00 | 99 | 1025.5 |
| 20260904171508 | 79 | 338 | 10.0 | 14.0 | 0.00 | 0.00 | 0.00 | 99 | 1025.3 |
| 20260904171004 | 79 | 338 | 10.0 | 14.0 | 0.00 | 0.00 | 0.00 | 99 | 1025.3 |
| 20260904170459 | 78 | 339 | 10.0 | 11.0 | 0.00 | 0.00 | 0.00 | 99 | 1025.3 |
| 20260904165955 | 78 | 339 | 10.0 | 11.0 | 0.00 | 0.00 | 0.00 | 99 | 1025.3 |
| 20260904165454 | 78 | 62 | 5.0 | 6.0 | 0.00 | 0.00 | 0.00 | 99 | 1025.3 |
| 20260904164953 | 78 | 62 | 5.0 | 6.0 | 0.00 | 0.00 | 0.00 | 99 | 1025.3 |
| 20260904164448 | 76 | 68 | 6.0 | 7.0 | 0.00 | 0.00 | 0.00 | 99 | 1025.3 |
| 20260904163944 | 76 | 68 | 6.0 | 7.0 | 0.00 | 0.00 | 0.00 | 99 | 1025.3 |
| 20260904163443 | 75 | 64 | 11.0 | 15.0 | 0.00 | 0.00 | 0.00 | 99 | 1025.1 |
| 20260904162938 | 75 | 64 | 11.0 | 15.0 | 0.00 | 0.00 | 0.00 | 99 | 1025.1 |
| 20260904162433 | 75 | 16 | 9.0 | 13.0 | 0.00 | 0.00 | 0.00 | 99 | 1025.2 |
| 20260904161928 | 75 | 16 | 9.0 | 13.0 | 0.00 | 0.00 | 0.00 | 99 | 1025.2 |
| 20260904161423 | 75 | 85 | 6.0 | 8.0 | 0.00 | 0.00 | 0.00 | 99 | 1025.2 |
| 20260904160919 | 75 | 85 | 6.0 | 8.0 | 0.00 | 0.00 | 0.00 | 99 | 1025.2 |
| 20260904160414 | 75 | 29 | 4.0 | 4.0 | 0.00 | 0.00 | 0.00 | 99 | 1025.2 |
| 20260904155909 | 75 | 29 | 4.0 | 4.0 | 0.00 | 0.00 | 0.00 | 99 | 1025.2 |
| 20260904155403 | 74 | 29 | 12.0 | 14.0 | 0.00 | 0.00 | 0.00 | 99 | 1024.8 |
| 20260904154902 | 74 | 29 | 12.0 | 14.0 | 0.00 | 0.00 | 0.00 | 99 | 1024.8 |
| 20260904154356 | 73 | 56 | 12.0 | 15.0 | 0.00 | 0.00 | 0.00 | 99 | 1024.8 |
| 20260904153852 | 73 | 56 | 12.0 | 15.0 | 0.00 | 0.00 | 0.00 | 99 | 1024.8 |
| 20260904153347 | 73 | 112 | 12.0 | 16.0 | 0.00 | 0.00 | 0.00 | 99 | 1024.8 |
| 20260904152844 | 73 | 112 | 12.0 | 16.0 | 0.00 | 0.00 | 0.00 | 99 | 1024.8 |
| 20260904152338 | 73 | 51 | 6.0 | 8.0 | 0.00 | 0.00 | 0.00 | 99 | 1024.7 |
| 20260904151833 | 73 | 51 | 6.0 | 8.0 | 0.00 | 0.00 | 0.00 | 99 | 1024.7 |
| 20260904151332 | 73 | 64 | 12.0 | 14.0 | 0.00 | 0.00 | 0.00 | 99 | 1024.7 |
| 20260904150829 | 73 | 64 | 12.0 | 14.0 | 0.00 | 0.00 | 0.00 | 99 | 1024.7 |
| 20260904150323 | 72 | 71 | 6.0 | 7.0 | 0.00 | 0.00 | 0.00 | 99 | 1024.6 |
| 20260904145821 | 72 | 71 | 6.0 | 7.0 | 0.00 | 0.00 | 0.00 | 99 | 1024.6 |
| 20260904145318 | 72 | 56 | 8.0 | 11.0 | 0.00 | 0.00 | 0.00 | 99 | 1024.5 |
| 20260904144813 | 71 | 71 | 6.0 | 9.0 | 0.00 | 0.00 | 0.00 | 99 | 1024.7 |
| 20260904144308 | 71 | 71 | 6.0 | 9.0 | 0.00 | 0.00 | 0.00 | 99 | 1024.7 |
| 20260904143803 | 71 | 104 | 3.0 | 3.0 | 0.00 | 0.00 | 0.00 | 99 | 1024.5 |
| 20260904143300 | 71 | 104 | 3.0 | 3.0 | 0.00 | 0.00 | 0.00 | 99 | 1024.5 |
| 20260904142756 | 70 | 67 | 6.0 | 11.0 | 0.00 | 0.00 | 0.00 | 99 | 1024.3 |
| 20260904142252 | 70 | 67 | 6.0 | 11.0 | 0.00 | 0.00 | 0.00 | 99 | 1024.3 |
| 20260904141752 | 69 | 64 | 7.0 | 9.0 | 0.00 | 0.00 | 0.00 | 99 | 1024.6 |
| 20260904141247 | 69 | 64 | 7.0 | 9.0 | 0.00 | 0.00 | 0.00 | 99 | 1024.6 |
| 20260904140742 | 69 | 97 | 16.0 | 18.0 | 0.00 | 0.00 | 0.00 | 99 | 1024.3 |
| 20260904140238 | 69 | 97 | 16.0 | 18.0 | 0.00 | 0.00 | 0.00 | 99 | 1024.3 |
| 20260904135736 | 68 | 99 | 8.0 | 9.0 | 0.00 | 0.00 | 0.00 | 99 | 1024.5 |
| 20260904135232 | 68 | 99 | 8.0 | 9.0 | 0.00 | 0.00 | 0.00 | 99 | 1024.5 |
| 20260904134728 | 68 | 146 | 6.0 | 7.0 | 0.00 | 0.00 | 0.00 | 99 | 1024.5 |
| 20260904134227 | 68 | 146 | 6.0 | 7.0 | 0.00 | 0.00 | 0.00 | 99 | 1024.5 |
| 20260904133722 | 67 | 72 | 8.0 | 9.0 | 0.00 | 0.00 | 0.00 | 99 | 1023.9 |
| 20260904133219 | 67 | 72 | 8.0 | 9.0 | 0.00 | 0.00 | 0.00 | 99 | 1023.9 |
| 20260904132719 | 67 | 78 | 14.0 | 15.0 | 0.00 | 0.00 | 0.00 | 99 | 1023.7 |
| 20260904132214 | 67 | 78 | 14.0 | 15.0 | 0.00 | 0.00 | 0.00 | 99 | 1023.7 |
| 20260904131713 | 67 | 127 | 13.0 | 15.0 | 0.00 | 0.00 | 0.00 | 99 | 1023.3 |
| 20260904131209 | 67 | 127 | 13.0 | 15.0 | 0.00 | 0.00 | 0.00 | 99 | 1023.3 |
| 20260904130709 | 67 | 92 | 9.0 | 10.0 | 0.00 | 0.00 | 0.00 | 99 | 1023.6 |
| 20260904130208 | 67 | 92 | 9.0 | 10.0 | 0.00 | 0.00 | 0.00 | 99 | 1023.6 |
| 20260904125704 | 65 | 125 | 9.0 | 9.0 | 0.00 | 0.00 | 0.00 | 99 | 1023.6 |
| 20260904125159 | 65 | 125 | 9.0 | 9.0 | 0.00 | 0.00 | 0.00 | 99 | 1023.6 |
| 20260904124654 | 66 | 123 | 8.0 | 9.0 | 0.00 | 0.00 | 0.00 | 99 | 1023.3 |
| 20260904124150 | 66 | 123 | 8.0 | 9.0 | 0.00 | 0.00 | 0.00 | 99 | 1023.3 |
| 20260904123650 | 65 | 118 | 9.0 | 13.0 | 0.00 | 0.00 | 0.00 | 99 | 1023.2 |
| 20260904123146 | 65 | 118 | 9.0 | 13.0 | 0.00 | 0.00 | 0.00 | 99 | 1023.2 |
| 20260904122640 | 64 | 143 | 9.0 | 10.0 | 0.00 | 0.00 | 0.00 | 99 | 1023.1 |
| 20260904122135 | 64 | 143 | 9.0 | 10.0 | 0.00 | 0.00 | 0.00 | 99 | 1023.1 |
| 20260904121630 | 65 | 139 | 10.0 | 11.0 | 0.00 | 0.00 | 0.00 | 99 | 1022.9 |
| 20260904121126 | 65 | 139 | 10.0 | 11.0 | 0.00 | 0.00 | 0.00 | 99 | 1022.9 |
| 20260904120623 | 65 | 164 | 11.0 | 13.0 | 0.00 | 0.00 | 0.00 | 99 | 1023.2 |
| 20260904120119 | 65 | 164 | 11.0 | 13.0 | 0.00 | 0.00 | 0.00 | 99 | 1023.2 |
| 20260904115618 | 65 | 137 | 12.0 | 14.0 | 0.00 | 0.00 | 0.00 | 99 | 1023.3 |
| 20260904115114 | 65 | 137 | 12.0 | 14.0 | 0.00 | 0.00 | 0.00 | 99 | 1023.3 |
| 20260904114613 | 64 | 149 | 10.0 | 13.0 | 0.00 | 0.00 | 0.00 | 99 | 1023.1 |
| 20260904114109 | 64 | 149 | 10.0 | 13.0 | 0.00 | 0.00 | 0.00 | 99 | 1023.1 |
| 20260904113608 | 65 | 113 | 12.0 | 14.0 | 0.00 | 0.00 | 0.00 | 99 | 1023.2 |
| 20260904113107 | 65 | 113 | 12.0 | 14.0 | 0.00 | 0.00 | 0.00 | 99 | 1023.2 |
| 20260904112603 | 65 | 102 | 13.0 | 16.0 | 0.00 | 0.00 | 0.00 | 99 | 1023.3 |
| 20260904112059 | 65 | 102 | 13.0 | 16.0 | 0.00 | 0.00 | 0.00 | 99 | 1023.3 |
| 20260904111554 | 65 | 135 | 17.0 | 19.0 | 0.00 | 0.00 | 0.00 | 99 | 1023.1 |
| 20260904111050 | 65 | 135 | 17.0 | 19.0 | 0.00 | 0.00 | 0.00 | 99 | 1023.1 |
| 20260904110544 | 66 | 157 | 11.0 | 13.0 | 0.00 | 0.00 | 0.00 | 99 | 1023.2 |
| 20260904110040 | 66 | 157 | 11.0 | 13.0 | 0.00 | 0.00 | 0.00 | 99 | 1023.2 |
| 20260904105539 | 65 | 150 | 15.0 | 16.0 | 0.00 | 0.00 | 0.00 | 99 | 1023.2 |
| 20260904105034 | 65 | 150 | 15.0 | 16.0 | 0.00 | 0.00 | 0.00 | 99 | 1023.2 |
| 20260904104530 | 66 | 115 | 10.0 | 11.0 | 0.00 | 0.00 | 0.00 | 99 | 1023.3 |
| 20260904104026 | 66 | 115 | 10.0 | 11.0 | 0.00 | 0.00 | 0.00 | 99 | 1023.3 |
| 20260904103521 | 66 | 109 | 13.0 | 16.0 | 0.00 | 0.00 | 0.00 | 99 | 1022.8 |
| 20260904103017 | 66 | 109 | 13.0 | 16.0 | 0.00 | 0.00 | 0.00 | 99 | 1022.8 |
| 20260904102513 | 65 | 130 | 15.0 | 17.0 | 0.00 | 0.00 | 0.00 | 99 | 1022.8 |
| 20260904102008 | 65 | 130 | 15.0 | 17.0 | 0.00 | 0.00 | 0.00 | 99 | 1022.8 |
| 20260904101505 | 65 | 170 | 15.0 | 16.0 | 0.00 | 0.00 | 0.00 | 99 | 1023.1 |
| 20260904101000 | 65 | 170 | 15.0 | 16.0 | 0.00 | 0.00 | 0.00 | 99 | 1023.1 |
| 20260904100456 | 64 | 127 | 15.0 | 17.0 | 0.00 | 0.00 | 0.00 | 99 | 1022.9 |
| 20260904095955 | 64 | 127 | 15.0 | 17.0 | 0.00 | 0.00 | 0.00 | 99 | 1022.9 |
| 20260904095450 | 64 | 94 | 12.0 | 14.0 | 0.00 | 0.00 | 0.00 | 99 | 1022.9 |
| 20260904094944 | 64 | 94 | 12.0 | 14.0 | 0.00 | 0.00 | 0.00 | 99 | 1022.9 |
| 20260904094440 | 64 | 113 | 11.0 | 13.0 | 0.00 | 0.00 | 0.00 | 99 | 1023.1 |
| 20260904093935 | 64 | 113 | 11.0 | 13.0 | 0.00 | 0.00 | 0.00 | 99 | 1023.1 |
| 20260904093431 | 64 | 127 | 12.0 | 14.0 | 0.00 | 0.00 | 0.00 | 99 | 1022.9 |
| 20260904092926 | 64 | 127 | 12.0 | 14.0 | 0.00 | 0.00 | 0.00 | 99 | 1022.9 |
| 20260904092423 | 62 | 95 | 14.0 | 18.0 | 0.00 | 0.00 | 0.00 | 99 | 1022.9 |
| 20260904091919 | 62 | 95 | 14.0 | 18.0 | 0.00 | 0.00 | 0.00 | 99 | 1022.9 |
| 20260904091414 | 61 | 112 | 12.0 | 14.0 | 0.00 | 0.00 | 0.00 | 99 | 1022.8 |
| 20260904090909 | 61 | 112 | 12.0 | 14.0 | 0.00 | 0.00 | 0.00 | 99 | 1022.8 |
| 20260904090405 | 61 | 132 | 13.0 | 15.0 | 0.00 | 0.00 | 0.00 | 99 | 1022.7 |
| 20260904085900 | 61 | 132 | 13.0 | 15.0 | 0.00 | 0.00 | 0.00 | 99 | 1022.7 |
| 20260904085355 | 60 | 78 | 8.0 | 9.0 | 0.00 | 0.00 | 0.00 | 99 | 1023.1 |
| 20260904084855 | 60 | 78 | 8.0 | 9.0 | 0.00 | 0.00 | 0.00 | 99 | 1023.1 |
| 20260904084351 | 59 | 131 | 6.0 | 8.0 | 0.00 | 0.00 | 0.00 | 99 | 1022.8 |
| 20260904083847 | 59 | 131 | 6.0 | 8.0 | 0.00 | 0.00 | 0.00 | 99 | 1022.8 |
| 20260904083343 | 58 | 155 | 5.0 | 6.0 | 0.00 | 0.00 | 0.00 | 99 | 1022.8 |
| 20260904082839 | 58 | 155 | 5.0 | 6.0 | 0.00 | 0.00 | 0.00 | 99 | 1022.8 |
| 20260904082333 | 59 | 188 | 9.0 | 10.0 | 0.00 | 0.00 | 0.00 | 99 | 1022.7 |
| 20260904081828 | 59 | 188 | 9.0 | 10.0 | 0.00 | 0.00 | 0.00 | 99 | 1022.7 |
| 20260904081324 | 60 | 137 | 9.0 | 10.0 | 0.00 | 0.00 | 0.00 | 99 | 1022.9 |
| 20260904080820 | 60 | 137 | 9.0 | 10.0 | 0.00 | 0.00 | 0.00 | 99 | 1022.9 |
| 20260904080315 | 60 | 149 | 12.0 | 15.0 | 0.00 | 0.00 | 0.00 | 99 | 1022.9 |
| 20260904075812 | 60 | 149 | 12.0 | 15.0 | 0.00 | 0.00 | 0.00 | 99 | 1022.9 |
| 20260904075312 | 60 | 150 | 9.0 | 10.0 | 0.00 | 0.00 | 0.00 | 99 | 1023.1 |
| 20260904074810 | 60 | 150 | 9.0 | 10.0 | 0.00 | 0.00 | 0.00 | 99 | 1023.1 |
| 20260904074306 | 60 | 154 | 11.0 | 11.0 | 0.00 | 0.00 | 0.00 | 99 | 1023.2 |
| 20260904073801 | 60 | 154 | 11.0 | 11.0 | 0.00 | 0.00 | 0.00 | 99 | 1023.2 |
| 20260904073257 | 60 | 137 | 9.0 | 10.0 | 0.00 | 0.00 | 0.00 | 99 | 1023.3 |
| 20260904072753 | 60 | 137 | 9.0 | 10.0 | 0.00 | 0.00 | 0.00 | 99 | 1023.3 |
| 20260904072252 | 60 | 139 | 14.0 | 15.0 | 0.00 | 0.00 | 0.00 | 99 | 1023.1 |
| 20260904071748 | 60 | 139 | 14.0 | 15.0 | 0.00 | 0.00 | 0.00 | 99 | 1023.1 |
| 20260904071248 | 60 | 141 | 11.0 | 11.0 | 0.00 | 0.00 | 0.00 | 99 | 1023.2 |
| 20260904070743 | 60 | 141 | 11.0 | 11.0 | 0.00 | 0.00 | 0.00 | 99 | 1023.2 |
| 20260904070243 | 61 | 144 | 9.0 | 9.0 | 0.00 | 0.00 | 0.00 | 99 | 1023.3 |
| 20260904065743 | 61 | 144 | 9.0 | 9.0 | 0.00 | 0.00 | 0.00 | 99 | 1023.3 |
| 20260904065239 | 61 | 132 | 11.0 | 11.0 | 0.00 | 0.00 | 0.00 | 99 | 1023.7 |
| 20260904064739 | 61 | 132 | 11.0 | 11.0 | 0.00 | 0.00 | 0.00 | 99 | 1023.7 |
| 20260904064234 | 61 | 159 | 12.0 | 14.0 | 0.00 | 0.00 | 0.00 | 99 | 1023.3 |
| 20260904063731 | 61 | 159 | 12.0 | 14.0 | 0.00 | 0.00 | 0.00 | 99 | 1023.3 |
| 20260904063226 | 61 | 158 | 9.0 | 11.0 | 0.00 | 0.00 | 0.00 | 99 | 1023.4 |
| 20260904062722 | 62 | 153 | 10.0 | 11.0 | 0.00 | 0.00 | 0.00 | 99 | 1023.4 |
| 20260904062218 | 62 | 153 | 10.0 | 11.0 | 0.00 | 0.00 | 0.00 | 99 | 1023.4 |
| 20260904061713 | 62 | 148 | 8.0 | 8.0 | 0.00 | 0.00 | 0.00 | 99 | 1023.6 |
| 20260904061209 | 62 | 148 | 8.0 | 8.0 | 0.00 | 0.00 | 0.00 | 99 | 1023.6 |
| 20260904060706 | 63 | 156 | 8.0 | 10.0 | 0.00 | 0.00 | 0.00 | 99 | 1023.7 |
| 20260904060201 | 63 | 156 | 8.0 | 10.0 | 0.00 | 0.00 | 0.00 | 99 | 1023.7 |
| 20260904055656 | 64 | 134 | 7.0 | 8.0 | 0.00 | 0.00 | 0.00 | 99 | 1023.8 |
| 20260904055151 | 64 | 134 | 7.0 | 8.0 | 0.00 | 0.00 | 0.00 | 99 | 1023.8 |
| 20260904054647 | 66 | 112 | 4.0 | 4.0 | 0.00 | 0.00 | 0.00 | 99 | 1023.9 |
| 20260904054143 | 66 | 112 | 4.0 | 4.0 | 0.00 | 0.00 | 0.00 | 99 | 1023.9 |
| 20260904053643 | 65 | 148 | 6.0 | 7.0 | 0.00 | 0.00 | 0.00 | 99 | 1023.8 |
| 20260904053138 | 65 | 148 | 6.0 | 7.0 | 0.00 | 0.00 | 0.00 | 99 | 1023.8 |
| 20260904052635 | 66 | 144 | 5.0 | 6.0 | 0.00 | 0.00 | 0.00 | 99 | 1023.6 |
| 20260904052130 | 66 | 144 | 5.0 | 6.0 | 0.00 | 0.00 | 0.00 | 99 | 1023.6 |
| 20260904051626 | 66 | 109 | 4.0 | 4.0 | 0.00 | 0.00 | 0.00 | 99 | 1023.8 |
| 20260904051121 | 66 | 109 | 4.0 | 4.0 | 0.00 | 0.00 | 0.00 | 99 | 1023.8 |
| 20260904050617 | 69 | 158 | 1.0 | 1.0 | 0.00 | 0.00 | 0.00 | 99 | 1023.7 |
| 20260904050113 | 69 | 158 | 1.0 | 1.0 | 0.00 | 0.00 | 0.00 | 99 | 1023.7 |
| 20260904045613 | 69 | 257 | 2.0 | 3.0 | 0.00 | 0.00 | 0.00 | 99 | 1023.8 |
| 20260904045107 | 69 | 257 | 2.0 | 3.0 | 0.00 | 0.00 | 0.00 | 99 | 1023.8 |
| 20260904044603 | 69 | 322 | 3.0 | 3.0 | 0.00 | 0.00 | 0.00 | 99 | 1023.8 |
| 20260904044059 | 69 | 322 | 3.0 | 3.0 | 0.00 | 0.00 | 0.00 | 99 | 1023.8 |
| 20260904043555 | 70 | 321 | 2.0 | 3.0 | 0.00 | 0.00 | 0.00 | 99 | 1023.9 |
| 20260904043051 | 70 | 321 | 2.0 | 3.0 | 0.00 | 0.00 | 0.00 | 99 | 1023.9 |
| 20260904042547 | 69 | 116 | 1.0 | 1.0 | 0.00 | 0.00 | 0.00 | 99 | 1024.3 |
| 20260904042042 | 69 | 116 | 1.0 | 1.0 | 0.00 | 0.00 | 0.00 | 99 | 1024.3 |
| 20260904041538 | 69 | 144 | 0.0 | 0.0 | 0.00 | 0.00 | 0.00 | 99 | 1024.2 |
| 20260904041034 | 69 | 144 | 0.0 | 0.0 | 0.00 | 0.00 | 0.00 | 99 | 1024.2 |
| 20260904040534 | 70 | 143 | 0.0 | 1.0 | 0.00 | 0.00 | 0.00 | 99 | 1024.3 |
| 20260904040031 | 70 | 143 | 0.0 | 1.0 | 0.00 | 0.00 | 0.00 | 99 | 1024.3 |
| 20260904035531 | 70 | 125 | 1.0 | 1.0 | 0.00 | 0.00 | 0.00 | 99 | 1024.1 |
| 20260904035030 | 70 | 125 | 1.0 | 1.0 | 0.00 | 0.00 | 0.00 | 99 | 1024.1 |
| 20260904034525 | 70 | 164 | 0.0 | 1.0 | 0.00 | 0.00 | 0.00 | 99 | 1024.1 |
| 20260904034021 | 70 | 164 | 0.0 | 1.0 | 0.00 | 0.00 | 0.00 | 99 | 1024.1 |
| 20260904033517 | 70 | 135 | 0.0 | 0.0 | 0.00 | 0.00 | 0.00 | 99 | 1024.2 |
| 20260904033014 | 70 | 135 | 0.0 | 0.0 | 0.00 | 0.00 | 0.00 | 99 | 1024.2 |
| 20260904032508 | 71 | 30 | 3.0 | 4.0 | 0.00 | 0.00 | 0.00 | 99 | 1024.2 |
| 20260904032008 | 71 | 30 | 3.0 | 4.0 | 0.00 | 0.00 | 0.00 | 99 | 1024.2 |
| 20260904031503 | 71 | 88 | 1.0 | 1.0 | 0.00 | 0.00 | 0.00 | 99 | 1024.1 |
| 20260904030959 | 71 | 88 | 1.0 | 1.0 | 0.00 | 0.00 | 0.00 | 99 | 1024.1 |
| 20260904030454 | 71 | 5 | 7.0 | 9.0 | 0.00 | 0.00 | 0.00 | 99 | 1024.1 |
| 20260904025949 | 71 | 5 | 7.0 | 9.0 | 0.00 | 0.00 | 0.00 | 99 | 1024.1 |
| 20260904025445 | 71 | 317 | 8.0 | 9.0 | 0.00 | 0.00 | 0.00 | 99 | 1023.8 |
| 20260904024939 | 71 | 317 | 8.0 | 9.0 | 0.00 | 0.00 | 0.00 | 99 | 1023.8 |
| 20260904024435 | 71 | 303 | 4.0 | 6.0 | 0.00 | 0.00 | 0.00 | 99 | 1023.8 |
| 20260904023930 | 71 | 303 | 4.0 | 6.0 | 0.00 | 0.00 | 0.00 | 99 | 1023.8 |
| 20260904023426 | 70 | 57 | 1.0 | 2.0 | 0.00 | 0.00 | 0.00 | 99 | 1023.8 |
| 20260904022926 | 70 | 57 | 1.0 | 2.0 | 0.00 | 0.00 | 0.00 | 99 | 1023.8 |